Location: Seale
(32.2974°N, 85.1688°W)
Time: 23:00:48
(UTC+00:00)

X-37B - Pass Details

Date: 30 January 2021
Orbit: 383 x 391 km, 45.0° (Epoch: 10 February)

Event Time Altitude Azimuth Distance (km) Brightness Sun altitude
Rises 23:35:09 0° 315° (NW) 2,271 4.9 -5.3°
Reaches altitude 10° 23:37:41 10° 336° (NNW) 1,416 3.5 -5.9°
Maximum altitude 23:39:56 18° 21° (NNE) 1,053 2.4 -6.3°
Drops below altitude 10° 23:42:11 10° 66° (ENE) 1,416 2.8 -6.8°
Enters shadow 23:42:29 - 70° (ENE) 1,501 2.9 -6.8°
